Time,TemperatureF,DewpointF,PressureIn,WindDirection,WindDirectionDegrees,WindSpeedMPH,WindSpeedGustMPH,Humidity,HourlyPrecipIn,Conditions,Clouds,dailyrainin,SolarRadiationWatts/m^2,SoftwareType,DateUTC
2013-09-17 00:00:00,45.0,45.0,-100.00,NE,45,0.0,-999.0,99,-99.99,,,-99.99,0.000000,,2013-09-17 04:00:00,
2013-09-17 00:44:00,45.0,45.0,-100.00,NE,45,0.0,-999.0,99,-99.99,,,-99.99,0.000000,,2013-09-17 04:44:00,
2013-09-17 00:54:00,45.0,45.0,-100.00,NE,45,0.0,-999.0,99,-99.99,,,-99.99,0.000000,,2013-09-17 04:54:00,
2013-09-17 01:00:00,43.0,43.0,-100.00,NE,45,0.0,-999.0,101,-99.99,,,-99.99,0.000000,,2013-09-17 05:00:00,
2013-09-17 01:42:00,43.0,43.0,-100.00,NE,45,0.0,-999.0,101,-99.99,,,-99.99,0.000000,,2013-09-17 05:42:00,
2013-09-17 01:52:00,43.0,43.0,-100.00,NE,45,0.0,-999.0,101,-99.99,,,-99.99,0.000000,,2013-09-17 05:52:00,
2013-09-17 02:00:00,44.0,44.0,-100.00,ENE,67,1.0,-999.0,101,-99.99,,,-99.99,0.000000,,2013-09-17 06:00:00,
2013-09-17 02:42:00,44.0,44.0,-100.00,ENE,67,1.0,-999.0,101,-99.99,,,-99.99,0.000000,,2013-09-17 06:42:00,
2013-09-17 02:52:00,44.0,44.0,-100.00,ENE,67,1.0,-999.0,101,-99.99,,,-99.99,0.000000,,2013-09-17 06:52:00,
2013-09-17 05:00:00,44.0,44.0,-100.00,East,90,1.0,-999.0,99,-99.99,,,-99.99,0.000000,,2013-09-17 09:00:00,
2013-09-17 05:43:00,44.0,44.0,-100.00,East,90,1.0,-999.0,99,-99.99,,,-99.99,0.000000,,2013-09-17 09:43:00,
2013-09-17 05:53:00,44.0,44.0,-100.00,East,90,1.0,-999.0,99,-99.99,,,-99.99,0.000000,,2013-09-17 09:53:00,
2013-09-17 06:00:00,43.0,43.0,-100.00,East,90,1.0,-999.0,100,-99.99,,,-99.99,0.000000,,2013-09-17 10:00:00,
2013-09-17 06:42:00,43.0,43.0,-100.00,East,90,1.0,-999.0,100,-99.99,,,-99.99,0.000000,,2013-09-17 10:42:00,
2013-09-17 06:53:00,43.0,43.0,-100.00,East,90,1.0,-999.0,100,-99.99,,,-99.99,0.000000,,2013-09-17 10:53:00,
2013-09-17 07:00:00,42.0,42.0,-100.00,East,90,1.0,-999.0,101,-99.99,,,-99.99,0.000000,,2013-09-17 11:00:00,
2013-09-17 07:43:00,42.0,42.0,-100.00,East,90,1.0,-999.0,101,-99.99,,,-99.99,0.000000,,2013-09-17 11:43:00,
2013-09-17 07:52:00,42.0,42.0,-100.00,East,90,1.0,-999.0,101,-99.99,,,-99.99,0.000000,,2013-09-17 11:52:00,
2013-09-17 09:00:00,46.0,46.0,-100.00,East,90,2.0,-999.0,99,-99.99,,,-99.99,154.279999,,2013-09-17 13:00:00,
2013-09-17 09:42:00,46.0,46.0,-100.00,East,90,2.0,-999.0,99,-99.99,,,-99.99,154.279999,,2013-09-17 13:42:00,
2013-09-17 09:52:00,46.0,46.0,-100.00,East,90,2.0,-999.0,99,-99.99,,,-99.99,154.279999,,2013-09-17 13:52:00,
2013-09-17 10:00:00,52.0,48.0,-100.00,ESE,112,5.0,-999.0,85,-99.99,,,-99.99,339.880005,,2013-09-17 14:00:00,
2013-09-17 10:42:00,52.0,48.0,-100.00,ESE,112,5.0,-999.0,85,-99.99,,,-99.99,339.880005,,2013-09-17 14:42:00,
2013-09-17 10:52:00,52.0,48.0,-100.00,ESE,112,5.0,-999.0,85,-99.99,,,-99.99,339.880005,,2013-09-17 14:52:00,
2013-09-17 11:00:00,56.0,49.0,-100.00,ESE,112,5.0,-999.0,75,-99.99,,,-99.99,431.519989,,2013-09-17 15:00:00,
2013-09-17 11:44:00,56.0,49.0,-100.00,ESE,112,5.0,-999.0,75,-99.99,,,-99.99,431.519989,,2013-09-17 15:44:00,
2013-09-17 11:53:00,56.0,49.0,-100.00,ESE,112,5.0,-999.0,75,-99.99,,,-99.99,431.519989,,2013-09-17 15:53:00,
2013-09-17 12:00:00,61.0,49.0,-100.00,ESE,112,5.0,-999.0,65,-99.99,,,-99.99,647.280029,,2013-09-17 16:00:00,
2013-09-17 12:42:00,61.0,49.0,-100.00,ESE,112,5.0,-999.0,65,-99.99,,,-99.99,647.280029,,2013-09-17 16:42:00,
2013-09-17 12:54:00,61.0,49.0,-100.00,ESE,112,5.0,-999.0,65,-99.99,,,-99.99,647.280029,,2013-09-17 16:54:00,
2013-09-17 14:00:00,66.0,49.0,-100.00,SE,135,5.0,-999.0,53,-99.99,,,-99.99,733.119995,,2013-09-17 18:00:00,
2013-09-17 14:42:00,66.0,49.0,-100.00,SE,135,5.0,-999.0,53,-99.99,,,-99.99,733.119995,,2013-09-17 18:42:00,
2013-09-17 14:52:00,66.0,49.0,-100.00,SE,135,5.0,-999.0,53,-99.99,,,-99.99,733.119995,,2013-09-17 18:52:00,
2013-09-17 15:00:00,68.0,49.0,-100.00,SE,135,5.0,-999.0,50,-99.99,,,-99.99,647.280029,,2013-09-17 19:00:00,
2013-09-17 15:42:00,68.0,49.0,-100.00,SE,135,5.0,-999.0,50,-99.99,,,-99.99,647.280029,,2013-09-17 19:42:00,
2013-09-17 15:52:00,68.0,49.0,-100.00,SE,135,5.0,-999.0,50,-99.99,,,-99.99,647.280029,,2013-09-17 19:52:00,
2013-09-17 16:00:00,69.0,49.0,-100.00,SE,135,4.0,-999.0,48,-99.99,,,-99.99,639.159973,,2013-09-17 20:00:00,
2013-09-17 16:42:00,69.0,49.0,-100.00,SE,135,4.0,-999.0,48,-99.99,,,-99.99,639.159973,,2013-09-17 20:42:00,
2013-09-17 16:52:00,69.0,49.0,-100.00,SE,135,4.0,-999.0,48,-99.99,,,-99.99,639.159973,,2013-09-17 20:52:00,
2013-09-17 17:00:00,69.0,48.0,-100.00,ESE,112,5.0,-999.0,47,-99.99,,,-99.99,389.760010,,2013-09-17 21:00:00,
2013-09-17 17:44:00,69.0,48.0,-100.00,ESE,112,5.0,-999.0,47,-99.99,,,-99.99,389.760010,,2013-09-17 21:44:00,
2013-09-17 17:54:00,69.0,48.0,-100.00,ESE,112,5.0,-999.0,47,-99.99,,,-99.99,389.760010,,2013-09-17 21:54:00,
2013-09-17 18:00:00,68.0,49.0,-100.00,SE,135,4.0,-999.0,50,-99.99,,,-99.99,225.039993,,2013-09-17 22:00:00,
2013-09-17 18:44:00,68.0,49.0,-100.00,SE,135,4.0,-999.0,50,-99.99,,,-99.99,225.039993,,2013-09-17 22:44:00,
2013-09-17 18:53:00,68.0,49.0,-100.00,SE,135,4.0,-999.0,50,-99.99,,,-99.99,225.039993,,2013-09-17 22:53:00,
2013-09-17 19:00:00,68.0,48.0,-100.00,SE,135,4.0,-999.0,49,-99.99,,,-99.99,189.080002,,2013-09-17 23:00:00,
2013-09-17 19:42:00,68.0,48.0,-100.00,SE,135,4.0,-999.0,49,-99.99,,,-99.99,189.080002,,2013-09-17 23:42:00,
2013-09-17 19:52:00,68.0,48.0,-100.00,SE,135,4.0,-999.0,49,-99.99,,,-99.99,189.080002,,2013-09-17 23:52:00,
2013-09-17 21:00:00,56.0,51.0,-100.00,East,90,0.0,-999.0,84,-99.99,,,-99.99,0.000000,,2013-09-18 01:00:00,
2013-09-17 21:42:00,56.0,51.0,-100.00,East,90,0.0,-999.0,84,-99.99,,,-99.99,0.000000,,2013-09-18 01:42:00,
2013-09-17 21:53:00,56.0,51.0,-100.00,East,90,0.0,-999.0,84,-99.99,,,-99.99,0.000000,,2013-09-18 01:53:00,
2013-09-17 23:00:00,53.0,52.0,-100.00,ESE,112,0.0,-999.0,95,-99.99,,,-99.99,0.000000,,2013-09-18 03:00:00,
2013-09-17 23:44:00,53.0,52.0,-100.00,ESE,112,0.0,-999.0,95,-99.99,,,-99.99,0.000000,,2013-09-18 03:44:00,
2013-09-17 23:55:00,53.0,52.0,-100.00,ESE,112,0.0,-999.0,95,-99.99,,,-99.99,0.000000,,2013-09-18 03:55:00,